When you browse on this site, cookies collect data to enhance your experience and personalize the content and advertising you see.
Visit our Privacy Policy to learn more. By continuing to use the site, you agree to this use of cookies and data.
  • en France
  • Liste des pays
  • À 7 jours
  • Température de l'eau
  • Carte météo
  • Widgets météo
  • user-avatar
    Se connecter

    Météo par heure à Lubango

    Ce jour, 2 Juin, Mardi

    Heure Température Précipitation Vent Pression Humidité
    00:00 +14°C° 0 mm 1 m/s 610 mmHg 41%
    01:00 +14°C° 0 mm 1 m/s 610 mmHg 43%
    02:00 +13°C° 0 mm 1 m/s 609 mmHg 45%
    03:00 +13°C° 0 mm 1 m/s 609 mmHg 47%
    04:00 +13°C° 0 mm 2 m/s 609 mmHg 50%
    05:00 +13°C° 0 mm 2 m/s 609 mmHg 52%
    06:00 +13°C° 0 mm 2 m/s 609 mmHg 55%
    07:00 +14°C° 0 mm 2 m/s 610 mmHg 58%
    08:00 +16°C° 0 mm 2 m/s 611 mmHg 50%
    09:00 +19°C° 0 mm 3 m/s 612 mmHg 41%
    10:00 +22°C° 0 mm 3 m/s 613 mmHg 32%
    11:00 +24°C° 0 mm 3 m/s 612 mmHg 30%
    12:00 +25°C° 0 mm 3 m/s 612 mmHg 28%
    13:00 +26°C° 0 mm 3 m/s 612 mmHg 27%
    14:00 +25°C° 0 mm 2 m/s 611 mmHg 28%
    15:00 +25°C° 0 mm 2 m/s 610 mmHg 29%
    16:00 +24°C° 0 mm 1 m/s 610 mmHg 30%
    17:00 +22°C° 0 mm 1 m/s 609 mmHg 32%
    18:00 +20°C° 0 mm 1 m/s 609 mmHg 35%
    19:00 +18°C° 0 mm 1 m/s 609 mmHg 38%
    20:00 +18°C° 0 mm 1 m/s 609 mmHg 38%
    21:00 +18°C° 0 mm 1 m/s 609 mmHg 39%
    22:00 +18°C° 0 mm 1 m/s 610 mmHg 39%
    23:00 +16°C° 0 mm 1 m/s 609 mmHg 42%

    Demain, 3 Juin, Mercredi

    Heure Température Précipitation Vent Pression Humidité
    00:00 +16°C° 0 mm 1 m/s 609 mmHg 44%
    01:00 +15°C° 0 mm 1 m/s 609 mmHg 46%
    02:00 +14°C° 0 mm 1 m/s 608 mmHg 47%
    03:00 +14°C° 0 mm 1 m/s 608 mmHg 48%
    04:00 +13°C° 0 mm 1 m/s 608 mmHg 49%
    05:00 +13°C° 0 mm 1 m/s 608 mmHg 49%
    06:00 +14°C° 0 mm 1 m/s 608 mmHg 48%
    07:00 +14°C° 0 mm 1 m/s 608 mmHg 48%
    08:00 +16°C° 0 mm 2 m/s 609 mmHg 42%
    09:00 +19°C° 0 mm 2 m/s 610 mmHg 37%
    10:00 +23°C° 0 mm 2 m/s 612 mmHg 31%
    11:00 +24°C° 0 mm 2 m/s 611 mmHg 29%
    12:00 +25°C° 0 mm 2 m/s 611 mmHg 26%
    13:00 +26°C° 0 mm 2 m/s 611 mmHg 24%
    14:00 +25°C° 0 mm 2 m/s 611 mmHg 24%
    15:00 +25°C° 0 mm 2 m/s 610 mmHg 25%
    16:00 +25°C° 0 mm 2 m/s 609 mmHg 25%
    17:00 +21°C° 0 mm 2 m/s 609 mmHg 32%
    18:00 +18°C° 0 mm 2 m/s 608 mmHg 39%
    19:00 +16°C° 0 mm 2 m/s 608 mmHg 46%
    20:00 +15°C° 0 mm 2 m/s 608 mmHg 46%
    21:00 +15°C° 0 mm 1 m/s 608 mmHg 47%
    22:00 +15°C° 0 mm 1 m/s 608 mmHg 47%
    23:00 +15°C° 0 mm 1 m/s 608 mmHg 46%

    Après-demain, 4 Juin, Jeudi

    Heure Température Précipitation Vent Pression Humidité
    00:00 +14°C° 0 mm 1 m/s 608 mmHg 45%
    01:00 +14°C° 0 mm 1 m/s 608 mmHg 44%
    02:00 +14°C° 0 mm 1 m/s 608 mmHg 44%
    03:00 +14°C° 0 mm 1 m/s 608 mmHg 44%
    04:00 +13°C° 0 mm 1 m/s 608 mmHg 44%
    05:00 +13°C° 0 mm 1 m/s 608 mmHg 44%
    06:00 +14°C° 0 mm 1 m/s 608 mmHg 44%
    07:00 +14°C° 0 mm 1 m/s 609 mmHg 44%
    08:00 +18°C° 0 mm 1 m/s 610 mmHg 39%
    09:00 +21°C° 0 mm 1 m/s 611 mmHg 33%
    10:00 +24°C° 0 mm 1 m/s 613 mmHg 28%
    11:00 +25°C° 0 mm 1 m/s 612 mmHg 26%
    12:00 +25°C° 0 mm 2 m/s 612 mmHg 25%
    13:00 +26°C° 0 mm 2 m/s 612 mmHg 23%
    14:00 +26°C° 0 mm 2 m/s 611 mmHg 24%
    15:00 +25°C° 0 mm 2 m/s 610 mmHg 25%
    16:00 +24°C° 0 mm 2 m/s 610 mmHg 25%
    17:00 +21°C° 0 mm 2 m/s 609 mmHg 33%
    18:00 +18°C° 0 mm 2 m/s 609 mmHg 41%
    19:00 +15°C° 0 mm 1 m/s 608 mmHg 49%
    20:00 +15°C° 0 mm 1 m/s 608 mmHg 49%
    21:00 +14°C° 0 mm 1 m/s 609 mmHg 50%
    22:00 +14°C° 0 mm 1 m/s 609 mmHg 50%
    23:00 +14°C° 0 mm 1 m/s 609 mmHg 49%

    5 Juin, Vendredi

    Heure Température Précipitation Vent Pression Humidité
    00:00 +14°C° 0 mm 1 m/s 609 mmHg 47%
    01:00 +14°C° 0 mm 1 m/s 609 mmHg 46%
    02:00 +14°C° 0 mm 1 m/s 609 mmHg 45%
    03:00 +14°C° 0 mm 1 m/s 609 mmHg 45%
    04:00 +13°C° 0 mm 1 m/s 608 mmHg 45%
    05:00 +13°C° 0 mm 1 m/s 609 mmHg 46%
    06:00 +13°C° 0 mm 1 m/s 609 mmHg 47%
    07:00 +13°C° 0 mm 1 m/s 609 mmHg 47%
    08:00 +18°C° 0 mm 1 m/s 610 mmHg 40%
    09:00 +21°C° 0 mm 1 m/s 612 mmHg 33%
    10:00 +24°C° 0 mm 2 m/s 613 mmHg 26%
    11:00 +25°C° 0 mm 2 m/s 613 mmHg 23%
    12:00 +26°C° 0 mm 2 m/s 612 mmHg 20%
    13:00 +27°C° 0 mm 2 m/s 612 mmHg 17%
    14:00 +27°C° 0 mm 2 m/s 612 mmHg 18%
    15:00 +26°C° 0 mm 2 m/s 611 mmHg 18%
    16:00 +26°C° 0 mm 2 m/s 611 mmHg 19%
    17:00 +23°C° 0 mm 2 m/s 610 mmHg 26%
    18:00 +19°C° 0 mm 2 m/s 610 mmHg 33%
    19:00 +16°C° 0 mm 1 m/s 609 mmHg 41%
    20:00 +15°C° 0 mm 1 m/s 609 mmHg 41%
    21:00 +15°C° 0 mm 1 m/s 609 mmHg 42%
    22:00 +14°C° 0 mm 1 m/s 609 mmHg 43%
    23:00 +14°C° 0 mm 1 m/s 609 mmHg 42%

    6 Juin, Samedi

    Heure Température Précipitation Vent Pression Humidité
    00:00 +14°C° 0 mm 1 m/s 609 mmHg 40%
    01:00 +14°C° 0 mm 1 m/s 609 mmHg 39%
    02:00 +14°C° 0 mm 1 m/s 609 mmHg 39%
    03:00 +14°C° 0 mm 1 m/s 609 mmHg 39%
    04:00 +14°C° 0 mm 1 m/s 609 mmHg 39%
    05:00 +14°C° 0 mm 1 m/s 609 mmHg 40%
    06:00 +14°C° 0 mm 1 m/s 609 mmHg 41%
    07:00 +14°C° 0 mm 1 m/s 609 mmHg 42%
    08:00 +17°C° 0 mm 2 m/s 610 mmHg 36%
    09:00 +20°C° 0 mm 2 m/s 612 mmHg 31%
    10:00 +24°C° 0 mm 3 m/s 613 mmHg 26%
    11:00 +25°C° 0 mm 3 m/s 613 mmHg 24%
    12:00 +26°C° 0 mm 2 m/s 613 mmHg 22%
    13:00 +27°C° 0 mm 2 m/s 612 mmHg 20%
    14:00 +27°C° 0 mm 2 m/s 612 mmHg 20%
    15:00 +27°C° 0 mm 2 m/s 612 mmHg 20%
    16:00 +26°C° 0 mm 2 m/s 611 mmHg 20%
    17:00 +23°C° 0 mm 2 m/s 610 mmHg 27%
    18:00 +19°C° 0 mm 2 m/s 609 mmHg 33%
    19:00 +16°C° 0 mm 2 m/s 609 mmHg 39%
    20:00 +16°C° 0 mm 2 m/s 609 mmHg 40%
    21:00 +16°C° 0 mm 2 m/s 609 mmHg 40%
    22:00 +15°C° 0 mm 2 m/s 609 mmHg 40%
    23:00 +15°C° 0 mm 2 m/s 609 mmHg 40%

    7 Juin, Dimanche

    Heure Température Précipitation Vent Pression Humidité
    00:00 +15°C° 0 mm 2 m/s 609 mmHg 40%
    01:00 +15°C° 0 mm 1 m/s 609 mmHg 41%
    02:00 +14°C° 0 mm 2 m/s 609 mmHg 41%
    03:00 +14°C° 0 mm 2 m/s 608 mmHg 41%
    04:00 +14°C° 0 mm 2 m/s 608 mmHg 41%
    05:00 +14°C° 0 mm 2 m/s 608 mmHg 41%
    06:00 +14°C° 0 mm 2 m/s 609 mmHg 41%
    07:00 +14°C° 0 mm 2 m/s 609 mmHg 41%
    08:00 +16°C° 0 mm 3 m/s 610 mmHg 36%
    09:00 +19°C° 0 mm 3 m/s 611 mmHg 31%
    10:00 +22°C° 0 mm 3 m/s 612 mmHg 26%
    11:00 +24°C° 0 mm 3 m/s 612 mmHg 24%
    12:00 +26°C° 0 mm 2 m/s 612 mmHg 22%
    13:00 +27°C° 0 mm 2 m/s 612 mmHg 20%
    14:00 +27°C° 0 mm 2 m/s 611 mmHg 20%
    15:00 +26°C° 0 mm 2 m/s 611 mmHg 20%
    16:00 +26°C° 0 mm 2 m/s 611 mmHg 20%
    17:00 +23°C° 0 mm 1 m/s 610 mmHg 25%
    18:00 +20°C° 0 mm 1 m/s 609 mmHg 29%
    19:00 +16°C° 0 mm 1 m/s 608 mmHg 34%
    20:00 +16°C° 0 mm 1 m/s 609 mmHg 34%
    21:00 +15°C° 0 mm 1 m/s 609 mmHg 34%
    22:00 +15°C° 0 mm 1 m/s 609 mmHg 35%
    23:00 +14°C° 0 mm 1 m/s 609 mmHg 35%
    Voir plus